Location: Luxembourg
(49.6117°N, 6.1300°E)
Time: 03:37:01
(UTC+01:00)

NOAA 15 - Visible Passes

Search period start: 22 March 2019 00:00
Search period end: 01 April 2019 01:00
Orbit: 797 x 813 km, 98.8° (Epoch: 21 March)

Date Brightness Start Highest point End Pass type
(mag) Time Alt. Az. Time Alt. Az. Time Alt. Az.
22 Mar 6.7 19:42:38 10° SSW 19:47:15 30° W 19:51:54 10° NNW visible
23 Mar 5.8 19:16:57 10° S 19:22:02 48° W 19:27:10 10° NNW visible
24 Mar 7.8 20:35:39 10° WSW 20:37:36 12° W 20:39:33 10° WNW visible
25 Mar 7.4 20:08:26 10° SW 20:12:12 20° W 20:15:58 10° NW visible
26 Mar 6.7 19:42:15 10° SSW 19:46:53 31° W 19:51:32 10° NNW visible
28 Mar 7.7 20:35:14 10° WSW 20:37:14 12° W 20:39:14 10° WNW visible
29 Mar 7.4 20:08:03 10° SW 20:11:49 20° W 20:15:36 10° NW visible
30 Mar 6.7 19:41:52 10° SSW 19:46:30 31° W 19:51:10 10° NNW visible
